Regional Weather Roundup
Issued by NWS

Home | Current Version | Previous Version | Text Only | Print | Product List | Glossary Off
Versions: 1 2 3 4 5 6 7 8 9 10 11 12 13 14 15 16 17 18 19 20 21 22 23 24 25 26 27 28

000
ASUS45 KCYS 182110
RWRWY

WYOMING REGIONAL WEATHER ROUNDUP
NATIONAL WEATHER SERVICE CHEYENNE WY
200 PM MST THU JAN 18 2018

NOTE:  "FAIR" INDICATES FEW OR NO CLOUDS BELOW 12,000 FEET
WITH NO SIGNIFICANT WEATHER AND/OR OBSTRUCTIONS TO VISIBILITY.

WYZ001-182200-
YELLOWSTONE NATIONAL PARK

CITY           SKY/WX    TMP DP  RH WIND       PRES   REMARKS
LK YELLOWSTONE   N/A     36  26  67 CALM      30.04F
W YELLOWSTONE  NOT AVBL

$$
WYZ002>013-054>058-071-098>099-182200-
NORTHERN WYOMING

CITY           SKY/WX    TMP DP  RH WIND       PRES   REMARKS
JACKSON        PTSUNNY   32  19  58 S3        30.06F
CODY           FAIR      42  26  53 E5        29.86F
GREYBULL       FAIR      25  16  68 E6        29.90F WCI  18
WORLAND        FAIR      29  20  69 CALM      29.90F
SHERIDAN       FAIR      35  27  72 S8        29.76F WCI  29
BUFFALO        FAIR      52  22  30 VRB6      29.80F
GILLETTE       FAIR      47  28  47 SW22G31   29.79F
HULETT         FAIR      46  25  42 SW16      29.82F
NEWCASTLE      FAIR      46  21  36 S5        29.88F

$$
WYZ014>020-022>026-101>103-182200-
CENTRAL WYOMING

CITY           SKY/WX    TMP DP  RH WIND       PRES   REMARKS
BIG PINEY      CLOUDY    37  22  54 E3        30.11F
PINEDALE       CLOUDY    32  19  59 W6        30.12F WCI  26
DUBOIS         FAIR      46  21  36 W24G33    29.97F
LANDER         FAIR      31  21  66 CALM      29.95F
RIVERTON       FAIR      28  18  66 NE5       29.98F WCI  23
CASPER         FAIR      49  24  37 SW32G40   29.96F
DOUGLAS        FAIR      55  27  34 SW12      29.91F

$$
WYZ021-027>030-104>119-182200-
SOUTHERN WYOMING

CITY           SKY/WX    TMP DP  RH WIND       PRES   REMARKS
EVANSTON       FAIR      47  26  44 SW9       30.10F
FORT BRIDGER   FAIR      52  21  30 CALM      30.13F
ROCK SPRINGS   FAIR      48  19  31 N5        30.11F
DIXON            N/A     47  16  29 SW15      30.20F
RAWLINS        FAIR      46  20  35 SW12      30.12F
SARATOGA       FAIR      46  19  34 SE9       30.13F
LARAMIE        FAIR      50  18  28 SW23G29   30.06F
CHEYENNE       FAIR      57  18  21 W22G32    29.99F
TORRINGTON     FAIR      58  27  30 W14       29.89F

$$




USA.gov is the U.S. government's official web portal to all federal, state and local government web resources and services.